Location: Unspecified
(0.0000°N, 0.0000°E)
Time: 00:02:08
(UTC+00:00)

ISS - Pass Details

Date: 11 December 2020
Orbit: 418 x 419 km, 51.6° (Epoch: 17 January)

Event Time Altitude Azimuth Distance (km) Brightness Sun altitude
Rises 19:49:50 0° 302° (WNW) 2,347 0.5 -26.5°
Reaches altitude 10° 19:52:16 10° 285° (WNW) 1,487 -0.4 -27.1°
Maximum altitude 19:54:50 21° 234° (SW) 1,006 -1.1 -27.7°
Enters shadow 19:55:26 20° 219° (SW) 1,038 -1.2 -27.8°
